Weather in Malyn

Ukraine / Zhytomyr Region     50°46′04″N   29°14′26″E
temp.,
°C
wind,
m/s
gust,
m/s
humid.,
%
clouds,
%
prec.,
mm/h
press.,
hPa
HPBL,
m
12 april, mon
mon1200:00+7se33610 0.0 102738
03:00+5ese22670 0.0 102713
06:00+4ese22720 0.0 102617
09:00+9e34600 0.0 1026237
12:00+14e334167 0.0 10241057
15:00+16e323484 0.0 10221461
18:00+14ese3544100 0.0 1021255
21:00+8ese378399 0.0 1023163
13 april, tue
tue1300:00+7sse119247 0.0 102210
03:00+6n1188100 0.0 102110
06:00+7n2289100 0.0 102123
09:00+9n2285100 0.0 1020125
12:00+14nne2270100 0.0 1019614
15:00+13e2379100 0.0 1018211
18:00+11ene2490100 0.3 1018211
21:00+10ese2598100 0.8 1018202
14 april, wed
wed1400:00+9se4796100 0.1 1017340
03:00+9se4895100 0.1 1016418
06:00+8se4894100 0.3 1015356
09:00+9se588436 0.3 1016546
12:00+11se6770100 0.0 1015938
15:00+10sse5878100 0.1 10151097
18:00+9sse4783100 0.0 1015641
21:00+8sse3787100 0.0 1015348
15 april, thu
thu1500:00+8sse248998 0.0 1015135
03:00+7s229090 0.0 101546
06:00+7se2289100 0.1 101447
09:00+10ese1276100 0.2 1015252
12:00+12e2265100 0.1 1014978
15:00+10ssw1282100 0.5 101596
18:00+11nw3477100 0.3 1014398
21:00+9nw3589100 0.6 1015158
16 april, fri
fri1600:00+8nnw369186 0.1 1014155
03:00+8nnw2491100 0.1 1014104
06:00+8nnw3690100 0.1 1013178
09:00+9n5888100 0.1 1014393
12:00+14n6768100 0.0 10131095
15:00+13n7873100 1.5 10131034
18:00+11n71191100 2.5 1014638
21:00+10nne81390100 3.1 1015801